SCP
0 0 0 0 0 0 0 0 1 1 0 0 0 1 1 1 1 1 0 0 0 0 0 0 0 0 0 0 0 0 0 0 0 0 0 0 0 0 0 0 0 0 0 0
0 0 0 0 0 0 0 1 1 1 0 0 0 0 1 1 1 1 1 0 0 0 0 0 0 0 0 0 0 0 0 0 0 0 0 0 0 0 0 0 0 0 0 0
0 0 0 0 0 0 0 1 1 0 0 0 0 0 0 0 0 1 1 1 0 0 0 0 0 0 0 0 0 0 0 0 0 0 0 0 0 0 0 0 0 0 0 0
0 0 0 0 0 0 0 0 0 0 0 0 0 0 0 0 0 1 1 1 1 1 0 0 0 0 0 0 0 0 0 0 0 0 0 0 0 0 0 0 0 0 0 0
0 0 0 0 0 0 0 0 0 0 0 0 0 0 0 0 0 1 1 1 1 1 0 0 0 0 0 0 0 0 0 0 0 0 0 0 0 0 0 0 0 0 0 0
0 0 0 0 0 0 0 0 0 0 0 0 0 0 0 0 1 1 1 1 1 1 0 0 0 0 0 0 0 0 0 0 0 0 0 0 0 0 0 0 0 0 0 0
0 0 0 0 0 0 0 0 0 0 0 0 0 0 0 0 1 1 1 1 1 1 0 0 1 1 0 0 0 0 0 0 0 0 0 0 0 0 0 0 0 0 0 0
0 0 0 0 0 0 0 0 0 0 0 0 0 0 0 0 0 1 1 1 1 1 1 1 1 1 1 1 0 0 0 0 0 0 0 0 0 0 0 0 0 0 0 0
0 0 0 0 0 0 0 0 0 0 0 0 0 0 0 0 0 1 1 1 2 1 1 1 1 1 1 1 1 1 0 0 0 0 0 0 0 0 0 0 0 0 0 0
0 0 0 0 0 0 0 0 0 0 0 0 0 0 0 0 1 1 2 2 2 1 1 1 1 1 1 1 1 1 1 0 0 0 0 0 0 0 0 0 0 0 0 0
0 0 0 0 0 0 0 0 0 0 0 0 0 0 0 0 1 1 2 2 2 1 1 1 1 1 1 1 1 1 1 0 0 0 0 0 0 0 0 0 0 0 0 0
0 0 0 0 0 0 0 0 0 0 0 0 0 0 0 0 1 1 2 2 1 1 1 1 1 1 1 1 1 1 1 1 0 0 0 0 0 0 0 0 0 0 0 0
0 0 0 0 0 0 0 0 0 0 0 0 0 0 0 0 1 1 1 1 1 1 1 1 1 1 1 1 1 1 1 1 1 1 0 0 0 0 0 0 0 0 0 0
0 0 0 0 0 0 0 0 0 0 0 0 0 0 0 0 1 1 1 1 1 1 2 1 1 1 1 1 1 1 1 1 1 1 1 0 0 0 0 0 0 0 0 0
0 0 0 0 0 0 0 0 0 0 0 0 0 0 0 0 1 1 1 1 1 1 2 2 1 1 1 1 1 1 1 1 1 1 1 0 0 0 0 0 0 0 0 0
0 0 0 0 0 0 0 0 0 0 0 0 0 0 0 0 0 0 0 1 1 2 2 2 1 1 1 2 1 1 1 2 2 1 1 0 0 0 0 0 0 0 0 0
0 0 0 0 0 0 0 0 0 0 0 0 0 0 0 0 0 0 0 1 1 2 2 1 1 1 2 2 1 1 2 2 2 1 1 0 0 0 0 0 0 0 0 0
0 0 0 0 0 0 0 0 0 0 0 0 0 0 0 0 0 0 0 1 1 1 1 1 1 2 2 2 1 1 2 2 2 1 0 0 0 0 0 0 0 0 0 0
0 0 0 0 0 0 0 0 0 0 0 0 0 0 0 0 0 0 0 1 1 1 1 1 1 2 2 1 1 1 1 2 1 1 0 0 0 0 0 0 0 0 0 0
0 0 0 0 0 0 0 0 0 0 0 0 0 0 0 0 0 0 0 0 1 1 1 1 1 1 1 1 1 1 1 1 1 0 0 0 0 0 0 0 0 0 0 0
0 0 0 0 0 0 0 0 0 0 0 0 0 0 0 0 0 0 0 0 1 1 1 1 1 1 1 1 1 1 1 0 0 0 0 0 0 0 0 0 0 0 0 0
0 0 0 0 0 0 0 0 0 0 0 0 0 0 0 0 0 0 0 1 1 1 1 1 1 1 1 1 2 1 1 1 0 0 0 0 0 0 0 0 0 0 0 0
0 0 0 0 0 0 0 0 0 0 0 0 0 0 0 0 0 0 1 1 1 1 1 1 1 1 1 2 2 1 1 1 1 0 0 0 0 0 0 0 0 0 0 0
0 0 0 0 0 0 0 0 0 0 0 0 0 0 0 0 0 0 1 1 1 1 1 1 1 1 1 2 2 1 1 1 0 0 0 0 0 0 0 0 0 0 0 0
0 0 0 0 0 0 0 0 0 0 0 0 0 0 0 0 0 1 1 1 1 1 0 1 1 1 1 1 1 1 1 0 0 0 0 0 0 0 0 0 0 0 0 0
0 0 0 0 0 0 0 0 0 0 0 0 0 0 0 0 0 1 1 1 1 1 0 0 0 1 1 1 1 1 0 0 0 0 0 0 0 0 0 0 0 0 0 0
Wind_Speed
7 7 7 8 10 8 6 5 5 5 6 6 6 8 10 9 9 9 9 10 10 9 10 9 7 7 6 6 7 8 6 5 3 2 3 3 3 3 3 3 3 4 5 5
7 8 8 7 6 6 6 5 4 4 5 4 5 6 8 10 10 10 10 10 10 10 10 9 8 7 7 6 6 7 6 5 5 2 3 3 3 3 3 2 3 5 5 6
9 6 7 7 6 7 6 5 4 5 5 5 5 4 7 9 9 9 10 9 10 11 13 11 9 8 7 5 5 7 7 6 5 4 3 3 3 2 2 2 3 4 4 5
5 5 6 7 7 7 5 5 6 6 5 3 6 4 7 9 8 9 10 10 10 10 12 11 9 8 7 6 5 7 7 6 6 4 3 3 3 2 2 2 2 3 3 3
5 7 7 7 7 6 3 2 3 5 4 4 7 5 6 10 12 13 12 11 10 11 11 11 10 9 7 6 5 5 6 7 5 5 4 2 2 2 2 3 3 3 3 3
7 6 5 4 4 4 4 3 2 4 3 7 10 8 6 10 15 16 14 13 11 11 11 10 9 8 7 6 5 5 6 6 5 4 4 3 3 2 3 2 2 2 2 2
8 8 6 5 6 7 7 5 3 5 5 6 9 8 6 10 15 16 15 15 12 11 11 11 10 9 8 8 7 6 6 6 5 4 3 4 3 2 3 2 2 2 2 2
7 7 9 8 8 8 10 9 5 3 4 3 7 7 5 8 11 12 14 14 14 13 11 12 11 9 9 8 7 7 7 6 5 4 3 3 3 2 3 2 2 3 2 3
5 5 10 10 9 7 8 9 6 3 5 3 5 5 4 6 9 11 12 14 15 14 13 13 12 10 9 9 7 7 7 6 5 4 3 3 3 3 3 2 3 3 3 3
4 3 6 8 7 8 7 6 4 4 3 4 6 8 7 11 11 11 12 13 14 14 14 13 12 11 10 9 7 7 7 7 6 5 4 3 3 4 4 3 3 2 3 3
7 4 5 8 9 10 10 9 7 4 5 3 2 2 2 10 11 12 12 12 14 14 14 12 11 11 10 10 8 7 7 6 6 5 4 4 3 4 4 3 3 2 2 3
7 3 5 9 9 9 10 10 8 5 5 4 2 2 4 5 9 10 11 11 12 13 12 12 12 11 10 10 9 8 7 7 6 6 5 5 4 4 4 4 2 1 1 2
5 3 3 4 6 9 10 11 10 8 5 5 3 3 4 3 7 8 9 11 11 13 13 12 11 11 10 10 9 8 8 7 6 5 5 5 5 4 4 4 2 1 2 2
2 5 6 6 4 7 11 12 12 10 6 6 6 5 6 5 6 8 9 10 11 13 13 12 11 10 10 10 9 8 8 8 7 6 5 5 5 4 4 3 3 2 3 2
6 7 9 10 8 8 10 12 13 13 11 9 8 7 5 4 6 8 10 11 11 12 13 13 12 11 10 10 9 9 8 8 8 7 6 5 5 5 4 4 3 2 2 3
10 7 8 10 10 10 10 12 12 13 12 11 10 9 7 5 5 8 9 12 12 13 13 13 13 13 13 11 10 10 10 8 8 7 6 5 5 5 5 4 3 3 3 3
10 9 7 7 8 8 11 13 14 13 13 11 11 8 7 7 5 7 9 11 12 13 12 13 14 13 13 13 12 12 11 9 9 8 7 6 6 5 5 5 4 3 3 3
9 8 4 5 6 8 7 9 9 11 12 11 10 8 7 6 4 5 6 9 10 12 13 13 12 12 12 12 12 11 11 10 9 9 8 7 7 6 5 5 4 4 3 3
8 6 4 4 5 8 7 8 9 9 9 10 11 9 7 7 5 4 7 9 10 11 12 12 12 12 12 13 13 13 12 11 10 9 9 8 8 7 6 5 5 3 3 3
8 6 5 4 5 5 4 3 3 3 5 7 9 8 7 6 4 4 5 7 9 9 10 10 11 11 12 12 13 13 12 11 10 10 9 9 8 7 7 6 4 4 3 3
9 8 8 7 6 5 4 2 2 3 2 1 4 5 5 4 3 3 4 5 7 8 9 10 10 10 10 11 12 12 12 11 9 9 9 8 8 7 6 5 4 4 3 3
9 7 8 7 7 5 3 3 1 1 3 3 3 1 2 2 2 4 5 6 7 8 9 10 9 8 8 10 11 11 10 10 10 9 9 8 8 7 7 6 4 4 4 3
8 6 3 3 2 1 1 1 2 3 4 4 3 2 1 3 4 5 5 6 7 8 8 8 8 8 8 9 9 9 9 11 11 10 9 8 7 6 6 6 5 4 4 3
3 4 4 3 2 1 1 2 3 3 3 3 3 2 2 2 4 6 6 6 6 7 8 8 9 9 8 8 8 8 10 11 11 10 9 8 8 6 6 5 5 4 4 3
1 2 3 3 2 1 0 1 2 1 2 2 2 2 1 3 4 5 5 6 6 6 7 8 8 8 9 9 8 9 10 11 11 10 8 8 7 7 6 5 4 4 4 4
3 2 3 2 2 2 1 3 3 2 2 1 1 1 1 3 4 4 5 5 6 6 7 7 8 8 9 9 9 9 9 10 10 9 8 6 6 5 5 5 4 3 4 7
Wind_Direction
204 221 225 218 217 234 235 213 202 171 175 179 176 167 169 172 177 175 175 176 176 168 153 138 133 131 129 125 120 126 134 121 111 94 95 94 85 77 69 72 41 37 34 30
201 225 237 232 221 232 235 214 184 149 159 169 178 182 179 184 192 180 186 184 176 166 150 145 153 151 142 142 144 136 122 112 103 78 101 104 93 95 92 75 59 50 39 23
220 224 224 226 218 221 224 216 201 161 170 195 182 194 194 198 198 191 189 191 186 172 158 159 161 146 143 155 146 125 118 117 111 95 75 83 83 79 86 83 61 56 53 38
242 240 232 221 220 219 220 216 216 179 175 205 202 201 205 199 199 201 195 192 189 175 161 162 156 148 154 155 142 128 125 121 113 115 92 104 101 94 99 105 113 98 74 58
230 225 224 222 219 220 212 230 234 204 208 238 225 218 210 194 198 202 204 197 183 172 163 161 155 154 150 140 126 116 117 113 110 109 102 79 89 102 96 89 85 92 80 69
244 235 231 221 216 207 176 195 229 229 228 239 230 225 209 195 198 196 198 197 182 173 164 158 149 141 136 128 121 116 113 115 120 131 138 123 102 96 95 90 90 92 99 78
220 220 208 193 200 190 199 190 200 202 211 233 223 224 222 197 195 192 190 189 177 169 162 154 148 148 144 143 143 137 133 133 142 157 154 148 148 136 118 110 100 85 94 85
218 208 198 198 206 197 207 210 214 222 220 227 218 220 215 192 189 186 181 177 169 169 164 156 154 154 151 151 153 150 146 146 154 163 157 136 118 95 90 86 94 83 82 87
234 218 194 199 202 210 212 220 235 272 283 254 232 213 163 180 180 177 174 171 168 167 163 157 155 157 154 154 155 154 151 151 154 155 137 118 120 108 102 88 77 84 88 92
240 240 201 186 198 218 226 216 221 228 254 238 216 209 183 177 177 173 170 169 163 163 162 159 158 158 155 152 153 154 156 154 153 151 145 134 114 100 88 83 70 79 89 87
223 215 204 194 206 207 205 218 224 230 242 272 270 263 235 174 172 172 170 166 161 162 162 158 157 156 151 150 154 160 159 151 151 150 146 140 126 118 114 94 83 66 105 120
212 208 219 213 215 219 219 219 218 225 248 252 250 275 282 177 165 166 167 163 161 158 155 154 154 155 154 157 163 166 159 154 155 154 151 145 133 135 131 125 133 143 94 102
206 201 213 213 217 212 225 223 224 230 251 264 247 233 266 164 148 157 158 159 158 153 151 152 155 158 158 161 164 163 159 155 152 153 149 142 143 145 139 138 135 118 96 84
221 226 216 216 220 215 220 220 220 222 228 253 254 232 221 177 155 154 155 158 158 157 158 157 158 159 160 162 164 161 155 149 150 152 150 145 146 141 132 117 114 96 94 85
221 239 244 248 240 230 228 223 219 224 229 238 257 266 250 204 169 165 163 162 163 164 164 163 164 165 163 164 167 161 153 151 153 155 155 148 140 129 119 111 103 90 89 92
220 240 248 258 240 229 231 226 223 226 232 230 245 259 268 252 185 168 171 168 168 173 172 169 170 169 170 169 168 158 155 155 152 153 150 140 136 128 126 125 118 100 81 75
211 230 254 266 259 240 236 226 221 222 227 229 237 240 241 247 198 174 175 175 178 176 173 173 176 176 174 173 172 165 160 158 157 156 150 144 141 134 136 133 121 116 106 90
215 223 232 262 263 246 247 232 224 221 221 226 235 237 236 246 215 178 171 176 179 176 174 175 176 173 171 171 169 161 156 161 162 159 153 150 145 140 136 133 138 144 134 123
207 216 228 237 251 263 253 239 220 220 224 222 229 229 227 227 219 195 186 183 180 178 176 174 174 171 171 170 167 162 162 165 165 162 157 156 151 150 151 154 159 153 139 134
202 215 227 238 246 256 263 254 200 208 234 220 217 223 219 203 206 212 184 176 171 169 167 166 165 167 169 167 164 164 165 167 168 161 156 154 153 153 156 158 153 139 135 140
201 215 227 238 248 257 266 269 211 214 259 293 199 203 200 202 204 167 142 145 154 150 151 153 159 164 164 161 161 165 167 168 159 147 145 146 148 151 151 147 139 136 137 143
202 209 220 226 235 239 215 225 224 356 9 27 29 101 158 177 157 129 134 133 134 138 144 150 155 154 152 155 160 167 167 152 139 138 141 145 147 152 146 140 143 145 144 152
210 205 210 216 202 141 145 78 57 22 360 14 17 25 94 141 137 123 126 130 136 144 147 147 146 145 148 155 162 164 149 138 138 139 143 147 146 143 144 148 154 154 156 168
225 201 215 227 184 156 90 21 49 26 359 13 15 29 72 113 127 131 138 138 141 146 146 143 145 152 157 157 155 147 139 141 143 149 152 154 153 152 153 156 161 163 170 181
269 246 233 231 229 227 321 23 16 20 17 24 28 29 70 113 129 135 139 141 144 144 144 148 156 160 158 153 150 145 145 148 151 154 158 161 158 158 162 162 166 168 169 171
260 259 245 234 277 277 48 34 19 39 37 39 50 49 75 117 129 125 130 134 142 147 149 154 158 157 157 157 157 152 153 153 155 160 164 162 159 159 162 158 160 163 169 174